Regional Weather Roundup
Issued by NWS Cleveland, OH

Home | Current Version | Previous Version | Graphics & Text | Print | Product List | Glossary On
Versions: 1 2 3 4 5 6 7 8 9 10 11 12 13 14 15 16 17 18 19 20 21 22 23 24 25 26 27 28 29 30 31 32 33 34 35 36 37 38 39 40 41 42 43 44 45 46 47 48 49 50
000
ASUS41 KCLE 222210
RWRCLE
OHIO REGIONAL WEATHER ROUNDUP
NATIONAL WEATHER SERVICE WILMINGTON, OH
600 PM EDT SAT JUL 22 2017

NOTE: "FAIR" INDICATES FEW OR NO CLOUDS BELOW 12,000 FEET WITH NO
SIGNIFICANT WEATHER AND/OR OBSTRUCTIONS TO VISIBILITY.

OHZ001>008-015>018-024>027-034-035-043-044-222300-
   NORTHWEST OHIO

CITY           SKY/WX    TMP DP  RH WIND       PRES   REMARKS
DEFIANCE       FAIR     N/A N/A N/A W9        29.78R
FINDLAY        FAIR      85  71  63 W17       29.77S HX  90
TOLEDO EXPRESS PTSUNNY   83  73  72 W14       29.75S
TOLEDO EXEC    FAIR      86  73  65 W17G24    29.75S HX  93
LIMA           FAIR      81  72  74 W10       29.80S
$$

OHZ009>014-019>023-028>033-038-089-222300-
   NORTHEAST OHIO

CITY           SKY/WX    TMP DP  RH WIND       PRES   REMARKS
CLE-HOPKINS    PTSUNNY   84  74  71 W9        29.77F HX  91
CLE-LAKEFRONT  FAIR      82  73  74 NW6       29.75R
CUY CO. ARPT   PTSUNNY   82  73  74 W8        29.77S
LORAIN-ELYRIA  PTSUNNY   82  68  62 W8        29.77S
ASHTABULA      PTSUNNY   79  70  74 CALM      29.79S
AKRON-CANTON   FAIR      80  70  71 W5        29.79F
WOOSTER        FAIR      80  73  79 W8        29.80R
MANSFIELD      FAIR      84  73  69 W8        29.79S HX  90
YOUNGSTOWN     PTSUNNY   79  70  74 SW7       29.79S
$$

OHZ042-051>053-060>062-070>072-077>081-222300-
  SOUTHWEST OHIO

CITY           SKY/WX    TMP DP  RH WIND       PRES   REMARKS
CINC-COVINGTON PTSUNNY   89  78  70 W12       29.82F HX 103
CINC-LUNKEN    FAIR      90  77  65 W13G23    29.80S HX 103
HAMILTON       PTSUNNY   90  75  61 W15G22    29.81S HX 100
DAYTON         PTSUNNY   86  72  62 W13       29.82S HX  92
WRIGHT-PAT AFB MOSUNNY   88  74  63 W10       29.80R HX  97
DAYTON GENERAL PTSUNNY   88  72  58 W9        29.81R HX  94
WILMINGTON     FAIR      89  75  63 W22G29    29.80S HX  99
$$

OHZ036-037-039>041-045>050-054>059-063>069-073>076-082>088-222300-
  CENTRAL AND SOUTHEAST OHIO

CITY           SKY/WX    TMP DP  RH WIND       PRES   REMARKS
COLUMBUS       PTSUNNY   86  77  74 W13       29.77S HX  97
OSU AIRPORT    FAIR      86  76  71 W17G24    29.78S HX  96
BOLTON FIELD   PTSUNNY   86  77  74 W14G21    29.79S HX  97
RICKENBACK AFB FAIR      82  76  82 W5        29.78R
NEWARK         LGT RAIN  78  74  87 VRB5      29.79S FOG
MARION         FAIR      84  72  67 W12       29.79S
LANCASTER      FAIR      76  74  93 VRB3      29.79F
ZANESVILLE     FAIR      75  71  87 CALM      29.80S
NEW PHILLY     FAIR      78  75  90 SW3       29.79F
$$




USA.gov is the U.S. government's official web portal to all federal, state and local government web resources and services.